TIME,DELAY(SENSOR),PRES,OXYGEN,RAWTEMP,T(OPTODE),TCPHASE,FLUOR,BETA(BETA700),BETA(BETA412),BETA(BETA440),CDOM,C(CSC),ED(ED412.20),ED(ED444.00),ED(ED489.60),ED(ED554.30),LU(LU412.10),LU(LU443.90),LU(LU489.70),LU(LU554.70),COMP,TILTX,TILTY,CHECK
1349406692,5809,891.9000244140625000,35.2135391235351560,557.4240112304688000,4.5657057762146000,56.2215499877929700,56,99,101,78,82,15560,0,0,0,0,2147121334,2147774546,2147571456,2147570678,3320,3,13,45724
1349410288,5809,958.1199951171875000,38.3709106445312500,563.7880859375000000,4.3684368133544920,55.7919387817382800,54,98,100,78,83,15557,0,0,0,0,2147123675,2147773202,2147575222,2147569691,517,3,13,61115
1349413888,5810,970.1500244140625000,39.0260505676269500,564.5709838867188000,4.3441448211669920,55.7006301879882800,55,101,100,78,82,15558,0,0,0,0,2147122340,2147775305,2147567030,2147569334,69,3,13,9887
1349417488,5811,978.7899780273438000,38.8069000244140600,564.9323730468750000,4.3329319953918460,55.7393493652343750,54,99,99,79,82,15560,0,0,0,0,2147125732,2147773577,2147570349,2147568155,330,3,13,24631
1349421088,5812,984.4699707031250000,38.8791618347168000,565.1530761718750000,4.3260798454284670,55.7351188659668000,55,98,101,78,82,15556,0,0,0,0,2147123419,2147773458,2147571977,2147569673,102,3,13,3487
1349424688,5807,996.9000244140625000,38.3597793579101560,564.4951782226562000,4.3464970588684080,55.8048210144043000,56,97,100,78,82,15557,0,0,0,0,2147123117,2147771520,2147572589,2147570642,570,3,13,24966
1349428288,5809,994.1400146484375000,38.1848411560058600,564.6635742187500000,4.3412718772888180,55.8309211730957000,54,99,102,79,81,15559,0,0,0,0,2147122880,2147772050,2147576091,2147572781,7,3,13,59162
1349431888,5809,994.5700073242188000,38.0727310180664060,564.4478149414062000,4.3479671478271480,55.8520584106445300,55,102,100,79,83,15559,0,0,0,0,2147122477,2147773942,2147572708,2147570258,379,3,13,63964
1349435488,5809,993.0100097656250000,38.1690292358398440,565.6422729492188000,4.3108978271484375,55.8445014953613300,55,101,101,78,83,15541,0,0,0,0,2147122688,2147773449,2147572388,2147568128,210,3,13,33031
1349439088,5812,994.9500122070312000,37.9907989501953100,564.5894165039062000,4.3435759544372560,55.8622894287109400,55,98,101,79,82,15543,0,0,0,0,2147118829,2147765659,2147574756,2147567177,4,3,12,50935
1349442688,5809,994.7100219726562000,37.7133102416992200,564.9157714843750000,4.3334469795227050,55.9053497314453100,56,98,101,78,82,15543,0,0,0,0,2147121078,2147772361,2147575213,2147568640,164,3,13,32649
1349446288,5808,992.5900268554688000,38.3882102966308600,566.3851928710938000,4.2878379821777340,55.8232612609863300,55,101,100,78,83,15544,0,0,0,0,2147122496,2147774957,2147569984,2147568621,113,3,13,65269
1349449888,5813,997.0000000000000000,38.0852012634277340,565.3400878906250000,4.3202757835388180,55.8524589538574200,55,98,100,78,82,15540,0,0,0,0,2147125028,2147768256,2147573833,2147569499,19,3,13,13978
1349453488,5811,997.7700195312500000,39.0674095153808600,566.1309204101562000,4.2957320213317870,55.7170104980468750,55,98,99,77,83,15540,0,0,0,0,2147124480,2147768402,2147571885,2147567158,3504,3,13,42698
1349457088,5810,1001.3699951171875000,38.5081710815429700,565.4296264648438000,4.3174991607666020,55.7941894531250000,55,99,101,78,83,15543,0,0,0,0,2147124105,2147772800,2147573668,2147568128,337,3,13,39454
1349460688,5809,991.4199829101562000,38.7053604125976560,567.0806274414062000,4.2662491798400880,55.7817802429199200,55,101,101,79,82,15541,0,0,0,0,2147123657,2147770258,2147575332,2147570779,292,3,13,43125
1349464288,5812,990.6400146484375000,38.6458892822265600,567.9155883789062000,4.2403140068054200,55.7988586425781250,55,98,100,77,83,15542,0,0,0,0,2147122358,2147770386,2147572900,2147567917,3247,3,13,24057
1349467888,5809,996.1900024414062000,39.5920295715332000,567.8328247070312000,4.2428889274597170,55.6515998840332000,54,97,99,79,82,15542,0,0,0,0,2147123373,2147774802,2147569664,2147568146,103,3,13,14685
1349471488,5811,995.0599975585938000,38.7257499694824200,567.8513793945312000,4.2423100471496580,55.7865104675293000,54,130,100,77,83,15543,0,0,0,0,2147123538,2147777627,2147573147,2147569581,15,3,13,1495
1349475088,5808,993.4500122070312000,38.5674095153808600,567.9882202148438000,4.2380599975585940,55.8085098266601560,55,98,100,78,84,15540,0,0,0,0,2147121627,2147777499,2147575378,2147570212,3446,3,13,17400
1349478688,5809,998.9000244140625000,39.1170692443847660,567.4276123046875000,4.2554721832275390,55.7222290039062500,54,100,100,78,83,15539,0,0,0,0,2147122121,2147772790,2147570706,2147569398,3565,3,13,31409
1349482288,5810,1001.6400146484375000,38.8983001708984400,566.5783081054688000,4.2818431854248050,55.7491989135742200,54,97,100,78,82,15539,0,0,0,0,2147123401,2147773760,2147570386,2147568877,149,3,13,51751
1349485888,5809,1002.5999755859375000,37.9279594421386700,565.3101806640625000,4.3212051391601560,55.8786506652832000,55,101,101,78,83,15539,0,0,0,0,2147121179,2147770075,2147569042,2147569609,71,3,13,20960
1349489488,5809,1005.9400024414062000,37.8527297973632800,565.5056152343750000,4.3151421546936035,55.8922996520996100,55,100,101,78,83,15537,0,0,0,0,2147122249,2147770221,2147576676,2147569627,22,3,13,47215
1349493088,5807,999.4899902343750000,37.4824790954589840,565.7927856445312000,4.3062248229980470,55.9566993713378900,55,100,100,77,81,15538,0,0,0,0,2147121846,2147762514,2147572726,2147570889,185,3,13,23660
1349496688,5812,1002.7600097656250000,38.7210083007812500,566.6298828125000000,4.2802410125732420,55.7718696594238300,55,99,101,78,83,15535,0,0,0,0,2147122660,2147773065,2147570587,2147571593,87,3,12,31694
1349500288,5812,1000.4699707031250000,39.2326011657714840,567.3856201171875000,4.2567768096923830,55.7059288024902340,55,98,100,77,81,15539,0,0,0,0,2147123282,2147771382,2147570880,2147570651,100,3,13,53696
1349503888,5812,1002.9400024414062000,39.2664909362793000,567.3399047851562000,4.2581939697265625,55.6957206726074200,55,98,99,78,82,15538,0,0,0,0,2147119661,2147770166,2147570450,2147568594,27,3,13,59563
1349507488,5807,997.1900024414062000,39.1701011657714840,568.7736816406250000,4.2136611938476560,55.7242813110351560,53,99,102,77,82,15537,0,0,0,0,2147123264,2147773531,2147569298,2147569773,141,3,13,37352
1349511088,5810,1001.0100097656250000,39.8444099426269500,568.1096191406250000,4.2342891693115230,55.6215896606445300,56,106,101,77,82,15536,0,0,0,0,2147122587,2147775168,2147573385,2147569837,114,3,13,18630
1349514688,5808,1003.0100097656250000,39.0948410034179700,567.2363891601562000,4.2614102363586430,55.7256889343261700,55,98,99,78,83,15536,0,0,0,0,2147120283,2147772653,2147575533,2147572123,189,3,13,33865
1349518288,5811,1008.1599731445312000,39.0124282836914060,566.9840087890625000,4.2692451477050780,55.7311210632324200,55,98,102,78,82,15534,0,0,0,0,2147120457,2147772754,2147570185,2147570368,562,3,13,45492
1349521888,5808,1008.8400268554688000,38.2565994262695300,565.5944824218750000,4.3123822212219240,55.8289985656738300,54,100,100,78,82,15534,0,0,0,0,2147123017,2147772169,2147573357,2147572525,181,3,13,32163
1349525488,5810,1007.8400268554688000,37.6192283630371100,565.1724853515625000,4.3254780769348145,55.9231605529785160,55,99,101,79,83,15535,0,0,0,0,2147123913,2147775021,2147571757,2147568987,141,3,13,574
1349529088,5810,1001.5399780273438000,37.6743888854980500,566.6746215820312000,4.2788519859313965,55.9306297302246100,56,99,100,80,82,15530,0,0,0,0,2147124534,2147778477,2147571373,2147572781,10,3,13,26380
1349532688,5809,1005.5900268554688000,38.7784996032714840,568.0947265625000000,4.2347531318664550,55.7817306518554700,55,97,99,77,83,15533,0,0,0,0,2147122505,2147770688,2147571145,2147569819,154,3,13,36514
1349536288,5809,1006.6099853515625000,39.4579010009765600,567.7291870117188000,4.2461071014404300,55.6718101501464840,55,99,100,78,82,15534,0,0,0,0,2147123072,2147774994,2147571657,2147570313,193,3,13,48104
1349539888,5808,1008.2899780273438000,38.9555511474609400,566.9901733398438000,4.2690539360046390,55.7393989562988300,55,98,100,77,82,15534,0,0,0,0,2147123611,2147770633,2147565549,2147572964,321,3,13,24031
1349543488,5807,1009.4199829101562000,38.6813316345214840,566.3829956054688000,4.2879052162170410,55.7730712890625000,55,98,101,80,83,15532,0,0,0,0,2147123721,2147774198,2147570596,2147570148,104,3,13,30176
1349547088,5809,1002.3099975585938000,38.1247215270996100,567.0537109375000000,4.2670822143554690,55.8648910522460940,56,98,101,79,83,15534,0,0,0,0,2147122587,2147774061,2147574573,2147570313,289,3,13,43349
1349550688,5812,1004.3699951171875000,38.3921203613281250,567.9052124023438000,4.2406392097473145,55.8369407653808600,56,100,101,77,84,15532,0,0,0,0,2147123840,2147768932,2147570861,2147574646,3491,3,13,54589
1349551555,5808,1003.2600097656250000,38.4142799377441400,567.9077148437500000,4.2405610084533690,55.8296203613281250,55,98,101,78,83,15529,0,0,0,0,2147123254,2147778514,2147579510,2147568036,105,3,13,52951
